Flag for Montenegro Weather past 2 weeks in Nikšić, Montenegro

Now
68 °F

Overcast.


Feels Like: 68 °F
Forecast: 53 / 78 °F
Wind: 3 mph from North

Location: Niksic

Current Time: Jun 30, 2015 at 1:47:59 AM

Latest Report: Jun 29, 2015 at 11:00 PM


Visibility: 13 mi

Pressure: 30.09 "Hg

Humidity: 78%

Dew point: 61 °F

Location of NikšićLocation

Historic Weather in Nikšić — Graph

°F

Nikšić temperature yesterday

Maximum temperature yesterday: 79 °F (at 5:00 PM)
Minimum temperature yesterday: 62 °F (at 2:00 AM)
Average temperature yesterday: 71 °F

Past Weeks' High & Low Weather Summary

 TemperatureHumidityPressure
High83 °F (Jun 16, 3:00 PM)100% (Jun 17, 12:00 PM)30.15 "Hg (Jun 17, 12:00 PM)
Low51 °F (Jun 23, 6:00 AM)43% (Jun 22, 6:00 PM)29.74 "Hg (Jun 19, 5:00 PM)
Average66 °F73%29.95 "Hg
* Reported Jun 14 11:00 PM — Jun 29 11:00 PM, Nikšić, Weather by CustomWeather, © 2015

Note: Actual official high and low records may vary slightly from our data, if they occured in-between our weather recording intervals... More about our weather records

Advertising

Nikšić weather history for previous 24 hours

 ConditionsComfort  
Time TempWeatherWind HumidityBarometerVisibility
11:00 PM
Mon, Jun 29
68 °FOvercast.3 mph78%30.09 "Hg12 mi
10:00 PM70 °FOvercast.3 mph64%30.07 "Hg12 mi
9:00 PM71 °FOvercast.3 mph70%30.04 "Hg12 mi
8:00 PM73 °FOvercast.2 mph65%30.01 "Hg12 mi
7:00 PM75 °FOvercast.3 mph63%30.00 "Hg12 mi
6:00 PM77 °FPartly sunny.5 mph63%29.99 "Hg12 mi
5:00 PM79 °FPartly sunny.3 mph60%29.98 "Hg12 mi
4:00 PM78 °FPartly sunny.3 mph60%29.99 "Hg12 mi
3:00 PM77 °FScattered clouds.3 mph58%29.99 "Hg12 mi
2:00 PM77 °FScattered clouds.5 mph62%30.01 "Hg12 mi
1:00 PM75 °FScattered clouds.6 mph66%30.03 "Hg12 mi
12:00 PM74 °FScattered clouds.5 mph68%30.04 "Hg12 mi
11:00 AM73 °FScattered clouds.7 mph68%30.04 "Hg12 mi
10:00 AM72 °FScattered clouds.7 mph74%30.03 "Hg12 mi
9:00 AM71 °FScattered clouds.6 mph77%30.03 "Hg12 mi
8:00 AM67 °FScattered clouds.2 mph80%30.03 "Hg12 mi
7:00 AM65 °FScattered clouds.3 mph84%30.02 "Hg12 mi
6:00 AM63 °FPartly sunny.2 mph86%30.02 "Hg12 mi
5:00 AM63 °FOvercast.2 mph45%30.02 "Hg12 mi
2:00 AM62 °FPassing clouds.2 mph83%30.02 "Hg12 mi
Weather by CustomWeather, © 2015

See weather overviewHow to use our weather pages